Regional Weather Roundup
Issued by NWS

Home | Current Version | Previous Version | Graphics & Text | Print | Product List | Glossary On
Versions: 1 2 3 4 5 6 7 8 9 10 11 12 13 14 15 16 17 18 19 20 21 22 23 24 25 26 27 28 29 30 31 32 33 34 35 36 37 38 39 40 41 42 43 44 45 46 47 48 49 50
000
ASUS43 KOAX 280302
RWRNE

WEATHER ROUNDUP FOR NEBRASKA
NATIONAL WEATHER SERVICE OMAHA NE
1000 PM CDT FRI MAR 27 2015

NOTES: SATELLITE DATA IS BEING USED TO AUGMENT CLOUD COVER ABOVE
       12000 FEET.
       "FAIR" INDICATES FEW OR NO CLOUDS BELOW 12,000 FEET WITH NO
       SIGNIFICANT WEATHER AND/OR OBSTRUCTIONS TO VISIBILITY.

  * THESE STATIONS DO NOT REPORT WEATHER SUCH AS RAIN...SNOW OR FOG.

NEZ001>004-019>022-054>056-280400-
NEBRASKA PANHANDLE

CITY           SKY/WX    TMP DP  RH WIND       PRES   REMARKS
SCOTTSBLUFF    MOCLDY    53  33  46 CALM      30.01R
ALLIANCE       MOCLDY    49  32  52 NW12      29.99R
CHADRON        MOCLDY    44  33  65 CALM      29.97R
KIMBALL        CLEAR     47  29  50 NW9       30.04S
SIDNEY         MOCLDY    43  32  65 W7        30.03R
$$

NEZ057>060-069>072-079>082-280400-
SOUTHWEST NEBRASKA

CITY           SKY/WX    TMP DP  RH WIND       PRES   REMARKS
NORTH PLATTE   MOCLDY    44  35  70 E7        29.96S
IMPERIAL       CLOUDY    52  31  44 NE9       29.98R
MCCOOK         MOCLDY    52  36  54 NE5       29.95R
$$

NEZ005>010-023>029-035>040-094-280400-
NORTH CENTRAL NEBRASKA

CITY           SKY/WX    TMP DP  RH WIND       PRES   REMARKS
VALENTINE      CLEAR     41  31  67 NW5       29.93R
BROKEN BOW     PTCLDY    42  34  73 CALM      29.95R
ORD            PTCLDY    38  25  59 SE6       29.97S WCI  33
$$

NEZ041-046>049-061>064-073>077-083>087-280400-
SOUTH CENTRAL NEBRASKA

CITY           SKY/WX    TMP DP  RH WIND       PRES   REMARKS
GRAND ISLAND   CLEAR     35  24  64 VRB6      30.02F WCI  30
AURORA         PTCLDY    33  25  72 SE12      30.02F WCI  24
HASTINGS       CLOUDY    39  24  55 E10G21    30.02R WCI  32
HEBRON         MOCLDY    35  24  64 E6        30.07S WCI  30
KEARNEY *      CLOUDY    43  27  52 SE12      30.00R
$$

NEZ011>018-030>034-042>045-280400-
NORTHEAST NEBRASKA

CITY           SKY/WX    TMP DP  RH WIND       PRES   REMARKS
NORFOLK        CLOUDY    33  27  78 SE10      30.03R WCI  25
ALBION         CLOUDY    33  26  76 SE9       30.01S WCI  25
BLAIR          CLOUDY    35  24  63 SE9       30.09S WCI  28
COLUMBUS *     PTCLDY    34  21  60 SE9       30.06S WCI  26
FREMONT        CLOUDY    37  24  60 SE10      30.07F WCI  29
TEKAMAH        CLOUDY    36  21  54 SE12      30.10F WCI  28
$$

NEZ050>053-065>068-078-088>093-280400-
SOUTHEAST NEBRASKA

CITY           SKY/WX    TMP DP  RH WIND       PRES   REMARKS
LINCOLN        MOCLDY    36  22  56 SE12      30.09F WCI  28
OMAHA EPPLEY   CLOUDY    37  20  50 SE10      30.11F WCI  30
BEATRICE       MOCLDY    36  24  62 SE7       30.08F WCI  30
FALLS CITY     CLOUDY    37  23  56 E7        30.13F WCI  32
NEBRASKA CITY  CLOUDY    36  19  50 SE7       30.12S WCI  30
PLATTSMOUTH    CLOUDY    35  19  51 SE7       30.10F WCI  29
$$

NEZ044-045-051>053-067-280400-
OMAHA AREA

CITY           SKY/WX    TMP DP  RH WIND       PRES   REMARKS
OMAHA EPPLEY   CLOUDY    37  20  50 SE10      30.11F WCI  30
BLAIR          CLOUDY    35  24  63 SE9       30.09S WCI  28
FREMONT        CLOUDY    37  24  60 SE10      30.07F WCI  29
OFFUTT AFB     CLOUDY    36  23  59 SE8       30.11F WCI  30
PLATTSMOUTH    CLOUDY    35  19  51 SE7       30.10F WCI  29
WAHOO          CLOUDY    35  25  65 SE10      30.08S WCI  27
$$


USA.gov is the U.S. government's official web portal to all federal, state and local government web resources and services.